STARLINK-3862, 52471

Orbit data source: Space-Track

STARLINK-3862, 52471 is a payload satellite owned by SpaceX/Seattle (US) in LEO that was launched on Fri, 06 May 2022 UTC via an FALCON 9 launch vehicle from the Air Force Eastern Test Range (AFETR). Payload-class satellites include a variety of spacecraft equipped with specific instruments for various scientific and technological missions. These include communications satellites like Starlink; space stations such as the ISS; scientific satellites like the Hubble; Earth observation satellites from companies like Planet Labs, Umbra, and HawkEye 360; GPS; miniature CubeSats for education and research; and military/defense satellites.

Loading next visibility...
Identifier
52471, 2022-049W
Orbit
LEO
Country
Flag of USUS
Related business
Manufacturer
SpaceX/Seattle
Mission
Operational Commercial Communications
Bus & Motor
STARLINK, Unknown motor
Mass
297 kg wet, ~220 kg dry
Launch date (UTC)
2022-05-06 (4 years ago)
Launch vehicle
FALCON 9
Launch site
Air Force Eastern Test Range (AFETR)
Object type
Payload
Rocket body
Debris
Shape & HBR
Box + 1 Pan, 10.1 m
Radar Cross Section
13.562 m², Large (>1 m²)

Expand to show TLE details & history
Last TLE update: 18 hours ago

TLE from 18 hours ago
0 STARLINK-3862
1 52471U 22049W   25346.68171816 -.00000274  00000-0  84956-6 0  9996
2 52471  53.2184  89.7251 0001176  93.2175 266.8952 15.08832245199115
Epoch: 2025-12-12T16:21Z
TLE epoch observation values (Epoch: 2025-12-12T16:21:40.449Z)
Latitude
0.00002°
Longitude
122.68674°
Altitude
540.709 km
Speed
7.593 km/s
True Right ascension
05h 58m 54s
True Declination
0° 00' 00"
Sunlit
Object was in full shadow at epoch
Visualization orbit readout
Latitude
Unknown
Longitude
Unknown
Altitude
Unknown
Speed
Unknown
Apparent Right ascension
Unknown
Apparent Declination
Unknown
Sunlit
N/A
Visualization observer readout
Local Sidereal Time
09:14:00
Azimuth
Unknown
Elevation
Unknown
Doppler factor
Unknown
Orbital elements
Apogee altitude
540.825 km
Perigee altitude
539.198 km
Semi-major axis
6,918.149 km
Eccentricity
0.00012
Inclination
53.2184°
RAAN
89.7251°
Arg. of periapsis
93.2175°
True anomaly
266.88174°
Mean anomaly
266.8952°
Eccentric anomaly
266.88847°
Mean motion
3.77188 °/min
Orbital period
95.44 mins
BSTAR
8.4956e-7
Loading maneuver chart data...
Computing Atmospheric mass density...
Loading historical data...
Loading historical data...
Loading historical data...
Loading historical data...
Loading historical data...
Loading historical data...
Loading historical data...

Documentation

Showing up to 5 results
|